Location: Shenandoah County Park
(38.9356°N, 78.4524°W)
Time: 05:48:43
(UTC-04:00)

Explorer 11/Cluster Stage 4 - Pass Details

Date: 02 March 2024
Orbit: 465 x 1220 km, 28.8° (Epoch: 12 April)

Event Time Altitude Azimuth Distance (km) Brightness Sun altitude
Rises 23:14:40 0° 244° (WSW) 3,827 - -54.0°
Reaches altitude 10° 23:17:29 10° 237° (WSW) 2,963 - -54.2°
Maximum altitude 23:24:16 38° 172° (S) 1,745 - -54.9°
Drops below altitude 10° 23:31:31 10° 109° (ESE) 3,165 - -55.5°
Sets 23:34:38 0° 102° (ESE) 4,115 - -55.7°
